Location: Newark
(8.3667°S, 17.0167°E)
Time: 08:26:16
(UTC+00:00)

Hubble Space Telescope - Visible Passes

Search period start: 13 November 2019 00:00
Search period end: 23 November 2019 00:00
Orbit: 536 x 540 km, 28.5° (Epoch: 12 November)

Date Brightness Start Highest point End Pass type
(mag) Time Alt. Az. Time Alt. Az. Time Alt. Az.
13 Nov 3.1 03:52:13 10° N 03:54:46 16° NNE 03:57:19 10° ENE visible
14 Nov 2.7 03:40:58 10° NNW 03:44:11 22° NNE 03:47:24 10° E visible
15 Nov 2.2 03:30:23 12° NNW 03:33:35 30° NNE 03:37:15 10° E visible
16 Nov 1.6 03:20:35 20° NNW 03:22:59 43° NNE 03:26:56 10° ESE visible
17 Nov 1.0 03:10:45 33° NW 03:12:24 62° NNE 03:16:30 10° ESE visible
18 Nov 0.7 03:00:52 53° WNW 03:01:49 89° NE 03:05:58 10° ESE visible
19 Nov 0.8 02:50:57 62° SW 02:51:14 65° SSW 02:55:21 10° SE visible
20 Nov 1.5 02:40:59 45° SSW 02:40:59 45° SSW 02:44:40 10° SE visible
21 Nov 2.2 02:30:58 30° S 02:30:58 30° S 02:33:54 10° SE visible
22 Nov 2.9 02:20:54 21° S 02:20:54 21° S 02:23:03 10° SSE visible
